Weather History for PHHI - March, 2012

Change the Weather History Date:

Friday, March 23, 2012

  Actual Average Record
Temperature  
Mean Temperature 69 °F -  
Max Temperature 76 °F 74 °F 81 °F (2015)
Min Temperature 62 °F 61 °F 55 °F (1998)
Cooling Degree Days 4    
Growing Degree Days 19 (Base 50)    
Moisture  
Dew Point 61 °F    
Average Humidity 79    
Maximum Humidity 94    
Minimum Humidity 51    
Precipitation  
Precipitation 0.03 in - - ()
Sea Level Pressure  
Sea Level Pressure 30.05 in    
Wind  
Wind Speed 6 mph (ENE)    
Max Wind Speed 20 mph    
Max Gust Speed 26 mph    
Visibility 10 miles    
Events Rain    
Averages and records for this station are not official NWS values.
T = Trace of Precipitation, MM = Missing Value Source: NWS Daily Summary

Daily Weather History Graph

Daily Weather History Graph

Search for Another Location

Airport or City:

Trip Planner

Search our weather history database for the weather conditions in past years. The results will help you decide how hot, cold, wet, or windy it might be!

Date:

Astronomy

Mar. 23, 2012 Rise Set
Actual Time 6:32 AM HST 6:44 PM HST
Civil Twilight 6:10 AM HST 7:06 PM HST
Nautical Twilight 5:44 AM HST 7:32 PM HST
Astronomical Twilight 5:18 AM HST 7:58 PM HST
Moon 7:01 AM HST (3/23) 7:58 PM HST (3/23)
Length of Visible Light 12h 56m
Length of Day
12h 11m
New Moon, 2% of the Moon is Illuminated
Mar 23
New Moon
Mar 30
First Quarter
Apr 6
Full
Apr 13
Last Quarter
Apr 20
New

Hourly Weather History & Observations

Time (HST) Temp. Dew Point Humidity Pressure Visibility Wind Dir Wind Speed Gust Speed Precip Events Conditions
12:04 AM 66.2 °F 60.8 °F 83% 30.07 in 10.0 mi NNE 6.9 mph - N/A   Partly Cloudy
12:16 AM 66.2 °F 60.8 °F 83% 30.07 in 10.0 mi NE 5.8 mph - N/A Rain Light Rain
12:28 AM 66.2 °F 60.8 °F 83% 30.07 in 10.0 mi Variable 5.8 mph - N/A   Partly Cloudy
12:38 AM 66.2 °F 60.8 °F 83% 30.07 in 10.0 mi Calm Calm - N/A   Light Drizzle
12:47 AM 66.2 °F 60.8 °F 83% 30.06 in 10.0 mi NNE 3.5 mph - N/A   Partly Cloudy
12:54 AM 66.2 °F 60.8 °F 83% 30.06 in 10.0 mi Calm Calm - N/A   Light Drizzle
12:55 AM 65.5 °F 60.8 °F 85% 30.06 in 10.0 mi Calm Calm - 0.00 in   Light Drizzle
1:11 AM 62.6 °F 60.8 °F 94% 30.06 in 10.0 mi NNW 4.6 mph - N/A   Clear
1:19 AM 62.6 °F 60.8 °F 94% 30.05 in 10.0 mi Calm Calm - N/A   Light Drizzle
1:28 AM 64.4 °F 60.8 °F 88% 30.05 in 10.0 mi NNW 3.5 mph - N/A   Clear
1:55 AM 65.1 °F 60.3 °F 84% 30.04 in 10.0 mi ENE 4.6 mph - 0.00 in   Clear
2:52 AM 66.2 °F 60.8 °F 83% 30.03 in 10.0 mi ENE 9.2 mph - N/A   Light Drizzle
2:55 AM 65.5 °F 60.3 °F 83% 30.03 in 10.0 mi NNE 5.8 mph - 0.00 in   Light Drizzle
3:03 AM 66.2 °F 60.8 °F 83% 30.02 in 10.0 mi ENE 8.1 mph - N/A   Partly Cloudy
3:48 AM 66.2 °F 60.8 °F 83% 30.01 in 10.0 mi NE 9.2 mph - N/A   Light Drizzle
3:55 AM 65.1 °F 60.4 °F 85% 30.01 in 10.0 mi ENE 11.5 mph - 0.00 in Rain Light Rain
4:10 AM 64.4 °F 60.8 °F 88% 30.00 in 10.0 mi ENE 5.8 mph - N/A   Partly Cloudy
4:36 AM 64.4 °F 60.8 °F 88% 30.00 in 8.0 mi Variable 3.5 mph - N/A Rain Light Rain
4:55 AM 65.1 °F 61.0 °F 86% 30.00 in 9.0 mi ENE 6.9 mph - 0.01 in Rain Light Rain
5:36 AM 64.4 °F 60.8 °F 88% 30.01 in 10.0 mi ENE 6.9 mph - N/A   Partly Cloudy
5:55 AM 64.6 °F 60.8 °F 88% 30.02 in 10.0 mi ENE 8.1 mph - 0.01 in   Clear
5:57 AM 64.4 °F 60.8 °F 88% 30.02 in 10.0 mi ENE 9.2 mph - N/A Rain Light Rain
6:09 AM 64.4 °F 60.8 °F 88% 30.02 in 10.0 mi Variable 5.8 mph - N/A   Clear
6:32 AM 64.4 °F 60.8 °F 88% 30.03 in 10.0 mi East 9.2 mph - N/A   Light Drizzle
6:55 AM 65.1 °F 61.0 °F 86% 30.04 in 10.0 mi East 6.9 mph - 0.00 in   Clear
7:12 AM 64.4 °F 60.8 °F 88% 30.06 in 10.0 mi Calm Calm - N/A   Light Drizzle
7:14 AM 64.4 °F 60.8 °F 88% 30.06 in 10.0 mi Calm Calm - N/A   Light Drizzle
7:21 AM 64.4 °F 60.8 °F 88% 30.06 in 10.0 mi Calm Calm - N/A   Scattered Clouds
7:26 AM 64.4 °F 62.6 °F 94% 30.06 in 10.0 mi Calm Calm - N/A   Light Drizzle
7:37 AM 66.2 °F 60.8 °F 83% 30.06 in 10.0 mi ENE 5.8 mph - N/A   Partly Cloudy
7:55 AM 66.4 °F 61.9 °F 85% 30.06 in 10.0 mi East 5.8 mph - 0.00 in   Partly Cloudy
8:10 AM 68.0 °F 62.6 °F 83% 30.06 in 10.0 mi ENE 9.2 mph - N/A   Light Drizzle
8:20 AM 68.0 °F 62.6 °F 83% 30.06 in 10.0 mi ENE 13.8 mph 18.4 mph N/A   Clear
8:55 AM 70.5 °F 62.1 °F 74% 30.07 in 10.0 mi East 9.2 mph 18.4 mph 0.00 in   Clear
9:55 AM 72.5 °F 59.0 °F 62% 30.09 in 10.0 mi ESE 10.4 mph 19.6 mph N/A   Clear
10:55 AM 73.9 °F 56.3 °F 54% 30.09 in 10.0 mi ENE 19.6 mph 26.5 mph N/A   Clear
11:55 AM 75.2 °F 58.8 °F 57% 30.07 in 10.0 mi ENE 17.3 mph 24.2 mph N/A   Partly Cloudy
12:55 PM 75.6 °F 58.1 °F 55% 30.04 in 10.0 mi ENE 16.1 mph 26.5 mph N/A   Clear
1:55 PM 76.3 °F 56.8 °F 51% 30.03 in 10.0 mi East 13.8 mph - N/A   Clear
2:55 PM 75.6 °F 56.5 °F 51% 30.01 in 10.0 mi East 17.3 mph 25.3 mph N/A   Clear
3:55 PM 74.8 °F 56.7 °F 53% 30.01 in 10.0 mi East 18.4 mph 25.3 mph N/A   Clear
4:55 PM 74.5 °F 57.7 °F 56% 30.02 in 10.0 mi ENE 15.0 mph 23.0 mph N/A   Clear
5:55 PM 72.0 °F 58.5 °F 62% 30.04 in 10.0 mi East 16.1 mph - N/A   Clear
6:36 PM 69.8 °F 59.0 °F 68% 30.05 in 9.0 mi ENE 9.2 mph - N/A Rain Light Rain
6:44 PM 69.8 °F 62.6 °F 78% 30.05 in 7.0 mi ENE 8.1 mph - N/A Rain Rain
6:45 PM 69.8 °F 62.6 °F 78% 30.05 in 7.0 mi ENE 5.8 mph - N/A Rain Light Rain
6:55 PM 68.4 °F 62.4 °F 81% 30.06 in 10.0 mi ENE 12.7 mph 18.4 mph 0.01 in   Light Drizzle
7:02 PM 68.0 °F 62.6 °F 83% 30.06 in 10.0 mi ENE 9.2 mph 18.4 mph N/A   Scattered Clouds
7:37 PM 68.0 °F 60.8 °F 78% 30.06 in 10.0 mi Calm Calm - N/A   Mostly Cloudy
7:43 PM 68.0 °F 60.8 °F 78% 30.05 in 10.0 mi Calm Calm - N/A   Mostly Cloudy
7:47 PM 68.0 °F 60.8 °F 78% 30.06 in 10.0 mi Calm Calm - N/A   Light Drizzle
7:48 PM 68.0 °F 60.8 °F 78% 30.06 in 10.0 mi Calm Calm - N/A   Light Drizzle
7:50 PM 68.0 °F 60.8 °F 78% 30.06 in 10.0 mi Calm Calm - N/A   Light Drizzle
7:51 PM 68.0 °F 60.8 °F 78% 30.06 in 10.0 mi Calm Calm - N/A   Light Drizzle
7:53 PM 68.0 °F 60.8 °F 78% 30.06 in 10.0 mi Calm Calm - N/A   Light Drizzle
7:55 PM 68.2 °F 61.3 °F 79% 30.06 in 9.0 mi Variable 4.6 mph - 0.00 in   Light Drizzle
8:06 PM 68.0 °F 62.6 °F 83% 30.06 in 9.0 mi NE 5.8 mph - N/A Rain Light Rain
8:07 PM 68.0 °F 62.6 °F 83% 30.06 in 10.0 mi NE 5.8 mph - N/A   Scattered Clouds
8:11 PM 68.0 °F 62.6 °F 83% 30.06 in 10.0 mi Variable 4.6 mph - N/A   Light Drizzle
8:24 PM 66.2 °F 60.8 °F 83% 30.06 in 10.0 mi ENE 10.4 mph - N/A   Scattered Clouds
8:45 PM 68.0 °F 60.8 °F 78% 30.06 in 10.0 mi Calm Calm - N/A   Mostly Cloudy
8:48 PM 68.0 °F 60.8 °F 78% 30.06 in 10.0 mi Calm Calm - N/A   Mostly Cloudy
8:49 PM 68.0 °F 60.8 °F 78% 30.07 in 10.0 mi Calm Calm - N/A   Mostly Cloudy
8:55 PM 67.5 °F 60.8 °F 79% 30.07 in 10.0 mi Calm Calm - 0.00 in   Mostly Cloudy
8:59 PM 68.0 °F 60.8 °F 78% 30.07 in 10.0 mi Variable 4.6 mph - N/A   Light Drizzle
9:07 PM 68.0 °F 60.8 °F 78% 30.07 in 10.0 mi East 11.5 mph - N/A   Light Drizzle
9:09 PM 68.0 °F 60.8 °F 78% 30.07 in 10.0 mi East 9.2 mph - N/A   Mostly Cloudy
9:55 PM 68.0 °F 59.4 °F 74% 30.08 in 10.0 mi Variable 6.9 mph - 0.00 in   Mostly Cloudy
10:47 PM 68.0 °F 59.0 °F 73% 30.08 in 10.0 mi Variable 4.6 mph - N/A   Mostly Cloudy
10:48 PM 68.0 °F 59.0 °F 73% 30.08 in 10.0 mi Variable 4.6 mph - N/A   Mostly Cloudy
10:50 PM 68.0 °F 59.0 °F 73% 30.08 in 10.0 mi Variable 6.9 mph - N/A   Mostly Cloudy
10:53 PM 68.0 °F 60.8 °F 78% 30.08 in 10.0 mi ESE 5.8 mph - N/A   Mostly Cloudy
10:54 PM 68.0 °F 60.8 °F 78% 30.08 in 10.0 mi ESE 3.5 mph - N/A   Overcast
10:55 PM 68.5 °F 60.1 °F 74% 30.08 in 10.0 mi ESE 3.5 mph - N/A   Mostly Cloudy
10:57 PM 68.0 °F 60.8 °F 78% 30.08 in 10.0 mi ESE 6.9 mph - N/A   Overcast
11:01 PM 68.0 °F 60.8 °F 78% 30.08 in 10.0 mi East 5.8 mph - N/A   Overcast
11:05 PM 68.0 °F 60.8 °F 78% 30.08 in 10.0 mi East 5.8 mph - N/A   Mostly Cloudy
11:55 PM 68.5 °F 59.4 °F 72% 30.09 in 10.0 mi ESE 8.1 mph - N/A   Scattered Clouds